Location: *
(51.4660°N, 0.3360°W)
Time: 21:56:09
(UTC+00:00)

Cosmos 405 Rocket - Pass Details

Date: 19 September 2019
Orbit: 491 x 554 km, 81.3° (Epoch: 20 October)

Event Time Altitude Azimuth Distance (km) Brightness Sun altitude
Exits shadow 19:10:58 - 160° (SSE) 2,361 5.7 -10.6°
Reaches altitude 10° 19:12:46 10° 149° (SSE) 1,684 4.9 -10.9°
Maximum altitude 19:15:52 26° 92° (E) 1,006 3.6 -11.3°
Drops below altitude 10° 19:19:01 10° 35° (NE) 1,708 5.2 -11.8°
Sets 19:21:22 0° 22° (NNE) 2,604 6.2 -12.1°
